| time (UTC) | temp C | wind direction | speed KPH | gust KPH | rain 1hr cm | rain 24hr cm | rain mn cm | humidity % | barometer mb |
| 20260504222039 | 26 | 207 | 12.9 | 16.1 | 0.00 | 0.00 | 0.00 | 43 | 990.5 |
| 20260504221536 | 26 | 179 | 4.8 | 8.0 | 0.00 | 0.00 | 0.00 | 43 | 990.5 |
| 20260504221033 | 26 | 147 | 8.0 | 9.7 | 0.00 | 0.00 | 0.00 | 43 | 990.5 |
| 20260504220529 | 26 | 191 | 11.3 | 12.9 | 0.00 | 0.00 | 0.00 | 44 | 990.6 |
| 20260504220026 | 26 | 213 | 6.4 | 8.0 | 0.00 | 0.00 | 0.00 | 42 | 990.5 |
| 20260504215523 | 26 | 213 | 9.7 | 11.3 | 0.00 | 0.00 | 0.00 | 41 | 990.7 |
| 20260504215020 | 26 | 206 | 8.0 | 9.7 | 0.00 | 0.00 | 0.00 | 42 | 990.5 |
| 20260504214516 | 26 | 153 | 12.9 | 17.7 | 0.00 | 0.00 | 0.00 | 41 | 990.6 |
| 20260504214012 | 26 | 206 | 8.0 | 12.9 | 0.00 | 0.00 | 0.00 | 41 | 990.7 |
| 20260504213509 | 26 | 125 | 6.4 | 9.7 | 0.00 | 0.00 | 0.00 | 41 | 990.6 |
| 20260504213007 | 26 | 186 | 14.5 | 20.9 | 0.00 | 0.00 | 0.00 | 39 | 991.0 |
| 20260504212502 | 26 | 132 | 6.4 | 11.3 | 0.00 | 0.00 | 0.00 | 40 | 990.9 |
| 20260504212000 | 26 | 229 | 9.7 | 12.9 | 0.00 | 0.00 | 0.00 | 41 | 990.7 |
| 20260504211456 | 27 | 202 | 16.1 | 17.7 | 0.00 | 0.00 | 0.00 | 39 | 990.8 |
| 20260504210954 | 26 | 142 | 8.0 | 12.9 | 0.00 | 0.00 | 0.00 | 40 | 990.8 |
| 20260504210450 | 27 | 203 | 8.0 | 9.7 | 0.00 | 0.00 | 0.00 | 41 | 990.9 |
| 20260504205947 | 27 | 173 | 4.8 | 8.0 | 0.00 | 0.00 | 0.00 | 40 | 991.0 |
| 20260504205445 | 27 | 163 | 8.0 | 11.3 | 0.00 | 0.00 | 0.00 | 41 | 991.1 |
| 20260504204943 | 26 | 241 | 4.8 | 9.7 | 0.00 | 0.00 | 0.00 | 42 | 991.1 |
| 20260504204441 | 26 | 244 | 12.9 | 17.7 | 0.00 | 0.00 | 0.00 | 41 | 991.0 |
| 20260504203940 | 27 | 262 | 4.8 | 4.8 | 0.00 | 0.00 | 0.00 | 42 | 991.1 |
| 20260504203437 | 27 | 212 | 11.3 | 14.5 | 0.00 | 0.00 | 0.00 | 40 | 991.4 |
| 20260504202933 | 29 | 170 | 6.4 | 11.3 | 0.00 | 0.00 | 0.00 | 38 | 991.5 |
| 20260504202430 | 28 | 137 | 8.0 | 14.5 | 0.00 | 0.00 | 0.00 | 39 | 991.3 |
| 20260504201926 | 28 | 128 | 4.8 | 8.0 | 0.00 | 0.00 | 0.00 | 41 | 991.6 |
| 20260504201424 | 30 | 242 | 11.3 | 22.5 | 0.00 | 0.00 | 0.00 | 37 | 991.6 |
| 20260504200921 | 29 | 159 | 8.0 | 9.7 | 0.00 | 0.00 | 0.00 | 39 | 991.7 |
| 20260504200418 | 28 | 272 | 8.0 | 11.3 | 0.00 | 0.00 | 0.00 | 40 | 991.8 |
| 20260504195915 | 28 | 317 | 3.2 | 3.2 | 0.00 | 0.00 | 0.00 | 40 | 992.0 |
| 20260504195410 | 28 | 250 | 6.4 | 9.7 | 0.00 | 0.00 | 0.00 | 39 | 991.8 |
| 20260504194907 | 27 | 216 | 9.7 | 14.5 | 0.00 | 0.00 | 0.00 | 40 | 991.8 |
| 20260504194403 | 28 | 202 | 8.0 | 14.5 | 0.00 | 0.00 | 0.00 | 37 | 992.1 |
| 20260504193859 | 30 | 283 | 3.2 | 4.8 | 0.00 | 0.00 | 0.00 | 36 | 992.1 |
| 20260504193356 | 30 | 215 | 3.2 | 4.8 | 0.00 | 0.00 | 0.00 | 37 | 991.9 |
| 20260504192855 | 27 | 294 | 4.8 | 4.8 | 0.00 | 0.00 | 0.00 | 40 | 992.5 |
| 20260504192352 | 28 | 201 | 11.3 | 12.9 | 0.00 | 0.00 | 0.00 | 41 | 992.3 |
| 20260504191850 | 28 | 159 | 6.4 | 9.7 | 0.00 | 0.00 | 0.00 | 39 | 992.6 |
| 20260504191348 | 28 | 251 | 8.0 | 9.7 | 0.00 | 0.00 | 0.00 | 38 | 992.5 |
| 20260504190843 | 27 | 289 | 1.6 | 3.2 | 0.00 | 0.00 | 0.00 | 40 | 992.7 |
| 20260504190339 | 27 | 128 | 9.7 | 14.5 | 0.00 | 0.00 | 0.00 | 38 | 992.8 |
| 20260504185836 | 28 | 226 | 8.0 | 12.9 | 0.00 | 0.00 | 0.00 | 40 | 992.6 |
| 20260504185333 | 27 | 175 | 4.8 | 8.0 | 0.00 | 0.00 | 0.00 | 39 | 992.7 |
| 20260504184829 | 27 | 136 | 1.6 | 3.2 | 0.00 | 0.00 | 0.00 | 40 | 992.7 |
| 20260504184325 | 28 | 181 | 1.6 | 3.2 | 0.00 | 0.00 | 0.00 | 42 | 992.7 |
| 20260504183821 | 28 | 229 | 6.4 | 8.0 | 0.00 | 0.00 | 0.00 | 40 | 992.9 |
| 20260504183319 | 29 | 311 | 4.8 | 8.0 | 0.00 | 0.00 | 0.00 | 36 | 992.6 |
| 20260504182817 | 27 | 204 | 4.8 | 8.0 | 0.00 | 0.00 | 0.00 | 40 | 992.7 |
| 20260504182314 | 28 | 153 | 8.0 | 9.7 | 0.00 | 0.00 | 0.00 | 39 | 992.9 |
| 20260504181811 | 28 | 297 | 1.6 | 1.6 | 0.00 | 0.00 | 0.00 | 41 | 992.9 |
| 20260504181308 | 27 | 269 | 3.2 | 4.8 | 0.00 | 0.00 | 0.00 | 43 | 993.0 |
| 20260504180807 | 26 | 213 | 9.7 | 16.1 | 0.00 | 0.00 | 0.00 | 45 | 992.8 |
| 20260504180305 | 28 | 275 | 4.8 | 4.8 | 0.00 | 0.00 | 0.00 | 40 | 993.1 |
| 20260504175803 | 29 | 253 | 8.0 | 9.7 | 0.00 | 0.00 | 0.00 | 39 | 993.3 |
| 20260504175259 | 29 | 259 | 4.8 | 4.8 | 0.00 | 0.00 | 0.00 | 40 | 993.3 |
| 20260504174757 | 28 | 231 | 8.0 | 9.7 | 0.00 | 0.00 | 0.00 | 43 | 993.2 |
| 20260504174255 | 29 | 264 | 4.8 | 4.8 | 0.00 | 0.00 | 0.00 | 39 | 993.2 |
| 20260504173751 | 28 | 224 | 1.6 | 3.2 | 0.00 | 0.00 | 0.00 | 40 | 993.2 |
| 20260504173248 | 27 | 149 | 6.4 | 8.0 | 0.00 | 0.00 | 0.00 | 44 | 993.4 |
| 20260504172745 | 28 | 141 | 4.8 | 8.0 | 0.00 | 0.00 | 0.00 | 41 | 993.4 |
| 20260504172242 | 28 | 329 | 6.4 | 11.3 | 0.00 | 0.00 | 0.00 | 41 | 993.4 |
| 20260504171738 | 29 | 231 | 4.8 | 8.0 | 0.00 | 0.00 | 0.00 | 41 | 993.4 |
| 20260504171235 | 28 | 242 | 4.8 | 4.8 | 0.00 | 0.00 | 0.00 | 43 | 993.7 |
| 20260504170732 | 29 | 330 | 0.0 | 1.6 | 0.00 | 0.00 | 0.00 | 41 | 993.6 |
| 20260504170229 | 28 | 227 | 1.6 | 3.2 | 0.00 | 0.00 | 0.00 | 41 | 993.7 |
| 20260504160147 | 27 | 179 | 1.6 | 3.2 | 0.00 | 0.00 | 0.00 | 46 | 994.4 |
| 20260504151115 | 26 | 231 | 4.8 | 9.7 | 0.00 | 0.00 | 0.00 | 48 | 994.9 |
| 20260504150613 | 26 | 255 | 1.6 | 1.6 | 0.00 | 0.00 | 0.00 | 50 | 994.8 |
| 20260504150109 | 26 | 274 | 4.8 | 4.8 | 0.00 | 0.00 | 0.00 | 49 | 994.7 |
| 20260504141037 | 21 | 244 | 3.2 | 3.2 | 0.00 | 0.00 | 0.00 | 63 | 994.8 |
| 20260504140534 | 21 | 172 | 3.2 | 4.8 | 0.00 | 0.00 | 0.00 | 64 | 994.8 |
| 20260504130459 | 16 | 298 | 1.6 | 3.2 | 0.00 | 0.00 | 0.00 | 75 | 995.0 |
| 20260504110340 | 11 | 280 | 1.6 | 1.6 | 0.00 | 0.00 | 0.00 | 86 | 994.0 |
| 20260504100303 | 11 | 266 | 3.2 | 3.2 | 0.00 | 0.00 | 0.00 | 84 | 994.1 |
| 20260504081656 | 12 | 256 | 1.6 | 1.6 | 0.00 | 0.00 | 0.00 | 80 | 994.5 |
| 20260504081152 | 12 | 261 | 1.6 | 3.2 | 0.00 | 0.00 | 0.00 | 79 | 994.2 |
| 20260504080649 | 12 | 258 | 1.6 | 1.6 | 0.00 | 0.00 | 0.00 | 79 | 994.6 |
| 20260504080145 | 12 | 259 | 1.6 | 1.6 | 0.00 | 0.00 | 0.00 | 79 | 994.6 |
| 20260504070113 | 12 | 260 | 3.2 | 3.2 | 0.00 | 0.00 | 0.00 | 75 | 995.2 |
| 20260504050502 | 13 | 292 | 1.6 | 1.6 | 0.00 | 0.00 | 0.00 | 70 | 995.7 |
| 20260504045959 | 13 | 282 | 1.6 | 1.6 | 0.00 | 0.00 | 0.00 | 69 | 996.0 |
| 20260504045455 | 13 | 292 | 1.6 | 3.2 | 0.00 | 0.00 | 0.00 | 69 | 995.7 |
| 20260504044951 | 13 | 287 | 1.6 | 1.6 | 0.00 | 0.00 | 0.00 | 68 | 995.7 |
| 20260504044448 | 13 | 315 | 0.0 | 1.6 | 0.00 | 0.00 | 0.00 | 69 | 995.7 |
| 20260504043946 | 13 | 268 | 1.6 | 1.6 | 0.00 | 0.00 | 0.00 | 69 | 995.7 |
| 20260504043442 | 13 | 284 | 3.2 | 3.2 | 0.00 | 0.00 | 0.00 | 70 | 995.9 |
| 20260504042940 | 13 | 252 | 1.6 | 3.2 | 0.00 | 0.00 | 0.00 | 70 | 995.9 |
| 20260504042436 | 13 | 263 | 1.6 | 1.6 | 0.00 | 0.00 | 0.00 | 70 | 996.0 |
| 20260504041933 | 13 | 270 | 1.6 | 1.6 | 0.00 | 0.00 | 0.00 | 70 | 996.0 |
| 20260504041429 | 13 | 255 | 1.6 | 1.6 | 0.00 | 0.00 | 0.00 | 69 | 995.8 |
| 20260504040925 | 12 | 272 | 0.0 | 0.0 | 0.00 | 0.00 | 0.00 | 70 | 996.1 |
| 20260504040424 | 12 | 282 | 0.0 | 0.0 | 0.00 | 0.00 | 0.00 | 71 | 996.0 |
| 20260504035919 | 12 | 276 | 1.6 | 1.6 | 0.00 | 0.00 | 0.00 | 71 | 996.3 |
| 20260504035417 | 12 | 272 | 0.0 | 0.0 | 0.00 | 0.00 | 0.00 | 74 | 996.1 |
| 20260504034913 | 12 | 272 | 0.0 | 0.0 | 0.00 | 0.00 | 0.00 | 78 | 996.3 |
| 20260504034412 | 12 | 281 | 0.0 | 0.0 | 0.00 | 0.00 | 0.00 | 79 | 996.3 |
| 20260504033908 | 12 | 329 | 0.0 | 0.0 | 0.00 | 0.00 | 0.00 | 78 | 996.4 |
| 20260504033406 | 12 | 329 | 0.0 | 0.0 | 0.00 | 0.00 | 0.00 | 77 | 996.4 |
| 20260504032902 | 13 | 330 | 0.0 | 0.0 | 0.00 | 0.00 | 0.00 | 75 | 996.4 |
| 20260504032359 | 13 | 309 | 0.0 | 0.0 | 0.00 | 0.00 | 0.00 | 72 | 996.5 |
| 20260504031855 | 13 | 305 | 0.0 | 0.0 | 0.00 | 0.00 | 0.00 | 68 | 996.5 |
| 20260504031353 | 13 | 304 | 0.0 | 0.0 | 0.00 | 0.00 | 0.00 | 69 | 996.5 |
| 20260504030849 | 13 | 301 | 0.0 | 0.0 | 0.00 | 0.00 | 0.00 | 69 | 996.4 |
| 20260504030347 | 13 | 314 | 0.0 | 0.0 | 0.00 | 0.00 | 0.00 | 69 | 996.6 |
| 20260504025843 | 13 | 315 | 0.0 | 0.0 | 0.00 | 0.00 | 0.00 | 69 | 996.2 |
| 20260504025340 | 13 | 304 | 0.0 | 0.0 | 0.00 | 0.00 | 0.00 | 66 | 996.5 |
| 20260504024836 | 13 | 305 | 0.0 | 0.0 | 0.00 | 0.00 | 0.00 | 66 | 996.5 |
| 20260504024333 | 13 | 297 | 0.0 | 0.0 | 0.00 | 0.00 | 0.00 | 68 | 996.4 |
| 20260504023829 | 13 | 289 | 0.0 | 0.0 | 0.00 | 0.00 | 0.00 | 72 | 996.2 |
| 20260504023327 | 13 | 293 | 0.0 | 0.0 | 0.00 | 0.00 | 0.00 | 73 | 996.3 |
| 20260504022822 | 13 | 272 | 0.0 | 0.0 | 0.00 | 0.00 | 0.00 | 76 | 996.1 |
| 20260504022319 | 14 | 276 | 0.0 | 0.0 | 0.00 | 0.00 | 0.00 | 71 | 996.3 |
| 20260504021816 | 15 | 309 | 0.0 | 0.0 | 0.00 | 0.00 | 0.00 | 67 | 996.3 |
| 20260504021314 | 15 | 299 | 0.0 | 0.0 | 0.00 | 0.00 | 0.00 | 61 | 996.2 |
| 20260504020810 | 15 | 297 | 0.0 | 0.0 | 0.00 | 0.00 | 0.00 | 61 | 995.9 |
| 20260504020307 | 15 | 299 | 0.0 | 0.0 | 0.00 | 0.00 | 0.00 | 59 | 996.0 |
| 20260504015803 | 15 | 296 | 0.0 | 0.0 | 0.00 | 0.00 | 0.00 | 59 | 996.0 |
| 20260504015259 | 15 | 300 | 0.0 | 0.0 | 0.00 | 0.00 | 0.00 | 59 | 996.1 |
| 20260504014755 | 15 | 300 | 0.0 | 0.0 | 0.00 | 0.00 | 0.00 | 58 | 996.0 |
| 20260504014251 | 15 | 301 | 0.0 | 0.0 | 0.00 | 0.00 | 0.00 | 59 | 995.9 |
| 20260504013749 | 15 | 299 | 0.0 | 0.0 | 0.00 | 0.00 | 0.00 | 62 | 996.1 |
| 20260504013247 | 15 | 299 | 0.0 | 0.0 | 0.00 | 0.00 | 0.00 | 61 | 996.2 |
| 20260504012743 | 15 | 299 | 0.0 | 0.0 | 0.00 | 0.00 | 0.00 | 63 | 996.0 |
| 20260504012241 | 16 | 280 | 0.0 | 0.0 | 0.00 | 0.00 | 0.00 | 65 | 996.2 |
| 20260504011738 | 16 | 298 | 0.0 | 0.0 | 0.00 | 0.00 | 0.00 | 59 | 995.9 |
| 20260504011234 | 16 | 302 | 0.0 | 0.0 | 0.00 | 0.00 | 0.00 | 57 | 995.9 |
| 20260504010731 | 16 | 307 | 0.0 | 0.0 | 0.00 | 0.00 | 0.00 | 57 | 995.9 |
| 20260504010226 | 16 | 277 | 0.0 | 0.0 | 0.00 | 0.00 | 0.00 | 56 | 996.0 |
| 20260504005723 | 16 | 271 | 0.0 | 0.0 | 0.00 | 0.00 | 0.00 | 55 | 995.8 |
| 20260504005220 | 17 | 270 | 0.0 | 1.6 | 0.00 | 0.00 | 0.00 | 54 | 995.7 |
| 20260504004718 | 17 | 272 | 0.0 | 0.0 | 0.00 | 0.00 | 0.00 | 52 | 995.8 |
| 20260504004215 | 17 | 272 | 0.0 | 0.0 | 0.00 | 0.00 | 0.00 | 52 | 995.6 |
| 20260504003712 | 17 | 291 | 0.0 | 0.0 | 0.00 | 0.00 | 0.00 | 51 | 995.6 |
| 20260504003208 | 18 | 275 | 0.0 | 0.0 | 0.00 | 0.00 | 0.00 | 51 | 995.5 |
| 20260504002705 | 18 | 293 | 0.0 | 0.0 | 0.00 | 0.00 | 0.00 | 52 | 995.8 |
| 20260504002202 | 18 | 292 | 0.0 | 0.0 | 0.00 | 0.00 | 0.00 | 52 | 995.9 |
| 20260504001700 | 18 | 267 | 0.0 | 0.0 | 0.00 | 0.00 | 0.00 | 50 | 995.9 |
| 20260504001157 | 18 | 301 | 0.0 | 0.0 | 0.00 | 0.00 | 0.00 | 49 | 996.0 |
| 20260504000653 | 19 | 284 | 0.0 | 0.0 | 0.00 | 0.00 | 0.00 | 48 | 996.0 |
| 20260504000150 | 19 | 311 | 0.0 | 0.0 | 0.00 | 0.00 | 0.00 | 47 | 996.0 |
| 20260503235649 | 20 | 258 | 3.2 | 3.2 | 0.00 | 0.00 | 0.00 | 47 | 996.0 |
| 20260503235145 | 20 | 274 | 0.0 | 0.0 | 0.00 | 0.00 | 0.00 | 45 | 996.0 |
| 20260503234643 | 20 | 232 | 1.6 | 3.2 | 0.00 | 0.00 | 0.00 | 44 | 996.3 |
| 20260503234141 | 20 | 289 | 0.0 | 1.6 | 0.00 | 0.00 | 0.00 | 44 | 996.0 |
| 20260503233638 | 20 | 229 | 1.6 | 3.2 | 0.00 | 0.00 | 0.00 | 42 | 996.1 |
| 20260503233133 | 21 | 232 | 1.6 | 1.6 | 0.00 | 0.00 | 0.00 | 44 | 996.1 |
| 20260503232630 | 21 | 282 | 0.0 | 0.0 | 0.00 | 0.00 | 0.00 | 42 | 996.0 |
| 20260503232128 | 21 | 296 | 0.0 | 1.6 | 0.00 | 0.00 | 0.00 | 42 | 996.2 |
| 20260503231626 | 21 | 352 | 0.0 | 1.6 | 0.00 | 0.00 | 0.00 | 41 | 996.4 |
| 20260503231122 | 21 | 300 | 0.0 | 0.0 | 0.00 | 0.00 | 0.00 | 41 | 996.3 |
| 20260503230619 | 22 | 259 | 0.0 | 0.0 | 0.00 | 0.00 | 0.00 | 40 | 996.7 |
| 20260503230116 | 22 | 140 | 3.2 | 3.2 | 0.00 | 0.00 | 0.00 | 40 | 996.4 |
| 20260503225614 | 22 | 294 | 1.6 | 1.6 | 0.00 | 0.00 | 0.00 | 38 | 996.4 |
| 20260503225113 | 22 | 305 | 1.6 | 1.6 | 0.00 | 0.00 | 0.00 | 37 | 996.5 |
| 20260503224611 | 22 | 309 | 1.6 | 3.2 | 0.00 | 0.00 | 0.00 | 37 | 996.9 |
| 20260503224109 | 23 | 337 | 1.6 | 1.6 | 0.00 | 0.00 | 0.00 | 35 | 996.8 |
| 20260503223606 | 24 | 286 | 0.0 | 1.6 | 0.00 | 0.00 | 0.00 | 34 | 996.7 |
| 20260503223102 | 24 | 300 | 0.0 | 0.0 | 0.00 | 0.00 | 0.00 | 35 | 996.7 |
| 20260503222600 | 24 | 284 | 0.0 | 1.6 | 0.00 | 0.00 | 0.00 | 34 | 996.8 |